Temp
15 15 15 15 16 16 16 16 16 16 17 17 17 18 18 18 18 18 18 18 18 18 18 18 18 19 19 19 19 19 19 19 19 18 17 17 17 17 18 19 19 19 19 20 20 21 20 20 19 19 21 20 16 16 16 15 15 17 19 18 18 17 17 18 18 17 16 18 18 17 14 14 15 14 13 12 12 13 13 13 13 12 13 13 14 14 13 13
15 15 15 15 16 16 16 16 16 17 17 17 18 18 18 18 18 18 18 18 19 18 18 18 19 19 19 19 19 19 19 20 19 17 17 17 17 18 18 19 19 19 19 19 20 19 19 19 17 17 21 19 16 16 17 15 16 18 17 17 18 18 17 17 18 17 16 17 18 16 13 13 14 14 13 14 15 13 13 14 13 14 15 14 13 13 13 12
15 15 15 16 16 16 16 16 17 17 17 18 18 18 18 18 18 18 18 18 18 18 18 19 19 19 19 19 19 19 19 20 18 17 17 18 18 18 18 18 18 19 19 19 19 19 19 19 17 17 20 19 16 16 18 16 15 17 16 18 19 17 17 15 16 17 16 15 16 15 12 12 13 12 12 14 14 14 14 15 15 16 16 16 14 13 13 12
15 15 16 16 16 16 16 17 17 17 17 18 18 18 18 18 18 18 18 18 19 19 19 19 19 19 19 19 19 19 19 19 18 17 18 18 18 18 18 18 18 19 19 19 19 18 18 17 16 17 19 19 16 15 18 17 16 16 16 19 18 15 16 17 15 15 14 12 13 14 12 13 12 11 12 13 13 14 15 16 15 15 15 15 14 12 12 11
15 15 16 16 16 17 17 17 17 18 18 18 18 18 18 18 18 18 19 19 19 19 19 19 19 19 19 19 19 18 19 20 18 17 18 18 18 18 18 18 18 19 19 19 19 18 18 16 16 18 19 19 17 17 18 15 14 16 16 18 16 13 16 17 14 13 12 11 12 13 13 13 12 11 13 13 13 15 16 16 14 13 13 12 11 10 10 10
16 16 16 16 17 17 17 17 18 18 18 18 18 18 18 18 18 18 19 19 19 19 19 19 19 19 19 20 20 19 19 19 18 18 18 18 18 18 18 19 18 19 18 19 18 18 18 17 18 19 18 18 17 17 17 13 13 17 17 16 13 12 15 15 13 12 11 11 13 12 11 11 12 13 12 11 13 15 15 14 12 11 10 9 9 9 10 10
16 16 16 16 17 17 17 18 18 18 18 18 18 18 18 18 18 19 19 20 20 19 19 19 19 19 19 20 19 19 18 18 17 18 18 18 18 18 19 19 18 19 18 18 17 18 18 18 19 17 18 18 16 16 15 13 13 15 17 16 13 12 14 14 12 12 11 11 11 10 10 11 13 13 11 12 14 13 13 11 10 10 9 9 9 9 10 9
16 16 16 16 17 17 17 18 18 18 18 18 18 18 18 19 19 19 19 20 20 19 20 19 19 19 19 20 19 18 17 18 18 18 18 18 18 18 19 19 18 18 18 17 16 17 18 18 18 16 18 18 15 16 14 14 15 15 16 16 13 12 13 12 11 12 12 10 9 10 12 13 13 11 12 15 14 11 11 11 10 9 9 9 9 9 9 9
16 16 16 17 17 18 18 18 18 18 18 18 18 18 19 19 19 20 20 20 19 20 20 20 20 19 20 18 17 18 18 18 18 18 18 18 18 18 19 19 19 18 18 17 15 17 17 17 17 16 18 16 14 15 14 16 16 15 15 14 14 13 12 12 12 14 13 10 9 11 13 13 11 11 14 14 12 10 10 10 9 9 9 9 9 9 8 8
16 16 17 17 17 18 18 18 18 18 18 18 18 19 19 19 20 20 20 20 19 20 20 20 20 19 20 18 16 18 18 18 18 18 18 18 18 19 19 19 19 19 18 17 16 16 16 16 15 14 16 15 14 14 13 16 15 13 13 13 13 12 12 12 13 13 11 10 10 11 14 12 10 12 14 12 10 10 9 9 9 8 8 8 8 8 7 7
16 17 17 17 18 18 18 18 18 18 18 18 19 19 19 19 20 19 19 20 19 20 20 20 20 20 20 18 17 18 18 18 18 17 17 18 19 19 19 19 18 18 18 17 16 15 15 15 13 14 16 15 14 14 13 13 12 12 12 14 13 11 12 12 12 12 11 13 11 10 13 12 12 12 11 9 9 9 8 8 7 7 7 7 7 7 7 7
17 17 18 18 18 18 18 18 18 18 19 19 19 19 19 19 19 20 19 20 20 20 20 20 20 20 19 17 18 18 18 19 18 17 17 18 19 19 18 18 18 18 18 17 16 16 16 15 15 16 16 14 15 15 14 11 10 12 12 16 16 13 13 12 12 12 12 14 11 11 15 15 13 10 8 8 8 8 7 7 6 6 6 6 6 6 6 6
17 18 18 18 18 19 19 19 19 19 19 19 19 19 19 19 19 20 20 20 20 20 20 20 20 20 20 18 18 19 19 18 18 18 19 19 19 19 18 18 18 18 18 17 16 16 16 15 16 16 14 14 15 14 13 10 10 12 11 13 16 16 16 13 11 13 13 13 11 13 18 17 11 7 7 7 7 7 6 6 6 6 6 6 6 6 6 6
18 18 18 18 19 19 19 19 19 19 19 19 19 19 19 20 20 20 20 20 20 20 20 20 20 20 20 19 19 19 19 18 18 18 18 18 19 19 18 18 18 18 18 17 16 16 15 16 16 14 12 12 13 12 13 12 12 13 12 12 13 15 18 14 10 12 14 13 12 14 17 16 11 6 6 6 6 6 5 5 5 5 5 5 5 5 6 6
18 18 18 19 19 19 19 19 19 19 19 19 19 19 20 20 20 20 20 20 20 20 20 20 20 20 20 19 19 19 19 18 18 17 16 17 18 18 17 17 18 17 17 17 16 16 15 16 15 14 13 12 11 13 16 15 13 12 15 16 13 13 15 13 10 10 11 12 12 14 16 15 9 5 6 6 5 5 5 5 5 5 5 5 5 5 5 5
18 18 18 19 19 19 19 19 19 19 20 19 19 20 20 20 20 20 20 20 20 20 20 20 20 20 20 19 19 19 18 17 17 17 16 16 16 17 17 17 17 17 17 16 16 16 15 15 13 11 13 12 11 14 17 17 15 12 13 16 14 13 13 13 12 8 9 11 12 13 14 13 8 6 6 5 5 5 5 5 4 5 5 4 5 4 5 5
18 18 19 19 19 19 19 19 19 20 20 20 19 20 20 20 20 20 20 20 20 20 20 20 19 19 19 19 19 18 17 17 17 17 16 16 16 17 17 16 15 15 16 16 17 16 15 14 12 11 12 11 11 14 17 16 14 13 12 12 12 12 11 12 13 9 9 11 11 11 11 10 7 6 6 5 5 4 4 4 4 4 4 4 4 4 4 4
18 19 19 19 19 19 19 20 20 20 20 20 20 20 20 20 20 20 20 20 20 20 20 20 19 19 19 19 18 17 16 16 17 16 16 16 16 17 16 15 14 15 17 17 17 16 14 14 14 15 14 11 10 12 15 14 12 13 11 11 11 10 11 12 13 11 9 11 10 11 10 7 6 5 5 5 4 4 4 4 4 4 4 4 4 4 4 4
19 19 19 19 19 19 19 20 20 20 20 20 20 20 20 20 20 20 19 19 19 19 19 18 17 18 18 18 16 16 16 16 17 16 15 16 16 16 16 14 13 15 18 19 17 14 13 15 15 15 14 12 10 10 12 13 11 11 10 10 10 10 11 11 12 10 8 10 11 10 9 6 5 5 4 4 4 4 4 4 4 4 4 4 4 4 4 3
19 19 19 19 19 19 19 20 20 21 21 21 21 20 21 20 20 20 17 16 16 15 17 16 16 17 17 17 16 16 16 17 17 15 15 15 15 16 15 14 15 16 15 16 16 12 11 15 14 13 13 12 10 9 9 10 9 9 9 9 9 9 10 11 12 10 8 11 10 8 7 5 4 4 4 4 4 4 3 3 3 3 4 4 3 3 3 3
19 19 19 19 19 19 20 20 21 21 21 21 21 20 19 18 19 19 17 15 13 12 15 15 14 15 16 16 15 14 15 17 17 14 15 15 15 17 15 14 18 17 12 10 12 12 13 15 13 12 11 9 9 7 8 8 8 8 9 10 10 9 10 12 12 9 8 10 10 8 6 5 4 4 4 4 3 3 3 3 3 3 3 3 3 3 3 3
19 19 19 19 19 20 20 20 20 21 21 21 21 17 15 16 17 18 17 18 15 12 14 14 13 15 15 15 15 14 14 16 17 15 15 15 15 17 15 14 16 15 12 11 14 16 16 15 13 10 8 8 7 7 8 9 9 9 9 10 11 11 11 12 12 9 8 10 10 8 7 5 4 4 4 3 3 3 3 3 3 3 3 3 3 3 3 3
19 19 19 20 19 20 20 20 20 20 21 21 19 16 15 16 16 16 17 19 18 15 15 16 15 16 16 16 15 15 15 15 15 15 14 14 15 14 14 14 15 14 13 14 16 17 16 15 11 8 8 10 11 9 10 10 10 10 9 11 13 12 11 12 12 10 8 9 9 8 7 5 4 4 4 3 3 3 3 3 3 3 3 3 3 3 3 3
19 19 19 20 19 20 20 20 20 20 20 19 18 17 16 17 16 17 17 17 17 17 16 16 15 15 16 15 15 15 16 14 14 14 13 13 13 13 13 12 14 15 12 11 14 16 16 13 8 7 9 12 13 12 11 11 12 11 11 12 13 12 11 11 10 9 8 7 7 8 9 7 4 4 3 3 3 3 3 3 3 3 3 3 3 3 3 2
19 19 19 20 20 20 20 20 20 19 19 18 17 17 16 17 16 16 18 17 18 18 16 16 16 16 15 15 14 13 14 15 14 14 13 12 12 14 13 10 13 16 12 10 13 16 15 10 7 10 12 12 13 13 11 11 11 12 12 12 12 11 10 9 8 8 10 11 8 9 12 10 5 3 3 3 3 3 3 3 2 3 3 3 3 3 3 2
19 19 20 20 20 20 21 21 19 18 19 18 16 16 16 17 16 16 18 19 19 18 17 18 18 17 17 15 12 11 15 17 14 13 13 12 11 13 14 12 12 14 12 11 13 14 13 10 10 12 13 13 14 13 11 10 11 13 13 11 10 9 8 8 8 8 12 13 9 8 12 12 7 4 3 3 2 2 2 2 2 2 2 2 2 2 2 2
20 19 20 20 20 21 21 20 19 19 19 17 16 17 16 16 16 16 18 20 19 18 17 19 18 18 18 14 11 13 17 17 15 14 13 13 11 12 14 13 13 13 9 10 14 14 13 13 13 13 13 14 14 13 11 10 11 14 12 9 10 9 9 9 8 9 10 10 9 8 10 12 11 7 3 2 3 2 2 2 2 2 2 2 2 2 2 2
19 19 20 20 20 20 20 19 19 18 18 17 17 17 16 16 16 17 20 20 18 18 17 17 18 17 15 12 12 15 15 13 16 16 13 13 12 12 15 13 13 14 10 11 16 14 12 14 14 13 14 14 14 13 11 9 11 13 11 9 9 9 8 7 8 9 7 8 12 11 9 11 12 8 2 2 3 1 1 2 1 2 2 2 2 2 2 2
19 19 20 20 20 20 19 19 19 17 17 17 16 16 16 16 16 18 21 19 17 18 17 16 18 16 12 13 14 14 13 13 14 14 12 13 13 12 14 11 11 13 10 11 15 13 11 12 10 11 14 14 14 13 10 9 11 12 10 9 9 8 6 6 8 9 8 9 13 12 10 10 11 10 5 3 2 1 1 2 1 2 1 2 2 2 2 2
19 19 19 20 20 19 19 19 18 17 16 16 16 16 16 16 17 20 20 18 17 17 15 15 16 13 11 15 17 13 13 13 11 11 12 12 12 12 11 9 10 14 12 11 14 13 10 8 8 10 12 12 12 12 10 9 10 11 10 10 11 9 7 7 7 9 10 11 12 10 10 10 10 9 4 2 3 1 1 1 1 2 1 2 2 2 2 2
19 19 19 20 20 19 19 18 16 16 16 16 16 15 17 18 18 20 18 16 16 15 14 14 12 11 10 12 14 13 13 13 11 12 13 11 11 11 11 10 11 14 14 13 14 14 12 11 11 10 9 9 10 11 10 8 8 10 10 11 11 10 9 9 9 10 10 11 11 10 9 9 10 8 3 1 2 1 1 1 1 2 1 2 2 2 2 2
19 19 19 19 19 18 18 16 16 16 16 16 15 15 19 20 17 17 16 15 17 14 13 13 11 11 10 10 12 11 12 13 12 11 12 11 9 8 10 10 9 12 14 12 13 14 15 15 12 10 9 9 10 11 11 10 10 10 10 10 10 9 9 9 10 9 9 10 11 10 8 8 9 7 3 1 2 2 2 2 1 2 1 2 2 2 2 2
19 19 19 19 18 18 17 16 16 16 16 16 16 17 20 21 17 14 13 15 16 12 10 10 10 9 10 12 13 10 10 13 12 11 10 10 11 9 9 8 8 11 13 12 11 12 14 14 13 12 11 10 11 11 11 11 10 10 10 10 10 8 7 8 8 8 9 9 10 10 8 7 9 7 2 1 2 2 2 2 2 2 2 2 2 2 2 2
19 19 19 18 17 17 16 15 16 16 16 16 18 20 20 19 16 12 13 14 12 10 9 9 9 10 11 13 12 10 12 14 11 12 12 12 12 11 10 9 8 9 11 11 10 10 12 13 14 14 12 12 12 10 9 10 10 9 9 9 10 9 7 7 8 8 8 8 9 9 8 9 9 6 2 2 2 2 2 2 2 2 2 2 2 2 2 2
19 19 19 18 17 16 15 15 16 16 16 16 18 19 18 17 14 12 13 11 9 10 10 8 10 14 15 13 10 9 12 14 12 12 13 12 11 11 10 9 8 8 9 11 9 9 11 13 13 12 10 12 12 9 8 10 10 9 8 9 9 8 8 8 8 8 7 6 7 7 8 9 7 3 1 2 2 2 2 2 2 2 2 2 2 2 1 1
19 18 18 17 16 16 16 16 16 17 17 18 18 16 14 14 12 11 11 10 9 9 10 11 12 15 16 14 13 11 11 12 13 13 13 11 10 10 9 8 8 7 8 10 9 9 11 12 13 11 11 12 10 9 8 8 10 10 8 8 8 7 8 8 7 7 6 5 6 7 8 8 6 3 0 0 1 2 2 2 2 2 2 1 1 1 1 1
19 18 17 16 16 16 16 16 16 17 16 17 17 14 11 10 10 10 8 8 7 6 10 15 14 13 14 14 15 14 12 12 12 13 13 12 10 10 9 8 7 7 7 8 9 9 9 11 11 10 12 12 8 8 9 7 9 10 8 8 8 7 7 6 5 5 5 5 6 7 6 6 6 4 1 1 2 2 2 3 3 2 1 1 1 1 1 1
19 18 17 16 16 16 16 17 16 17 16 15 14 11 10 10 9 8 7 7 6 7 11 15 13 12 12 13 14 12 11 13 13 12 13 12 11 10 9 9 8 7 6 6 9 9 7 10 11 8 10 11 8 9 10 8 7 8 8 7 7 6 6 5 4 4 4 4 4 6 6 5 6 5 2 2 2 2 2 3 2 2 1 1 1 1 1 0
19 19 17 16 17 16 16 17 16 15 16 15 13 11 10 10 8 6 5 6 6 9 12 13 11 12 11 12 13 11 9 11 12 11 12 12 12 10 8 8 8 7 6 5 8 8 6 10 11 9 9 11 10 10 9 8 7 7 7 6 5 5 5 4 4 4 4 3 3 4 4 5 6 4 2 2 2 2 2 2 2 1 1 1 0 0 0 0
17 19 19 17 17 17 17 17 14 14 15 13 11 11 10 10 9 5 3 5 7 10 11 11 10 12 12 11 11 9 9 9 10 11 12 11 11 10 7 7 7 7 5 6 7 7 7 9 10 10 10 10 10 9 8 8 8 6 6 5 4 5 5 3 3 4 3 3 3 2 3 4 5 3 2 2 2 2 2 2 1 1 0 0 0 -0 -0 -0
16 20 20 17 17 18 18 17 12 10 12 11 10 10 9 9 10 7 3 2 6 8 9 10 10 11 11 11 10 8 8 9 9 10 11 11 11 11 7 3 4 5 6 8 7 6 8 8 8 9 9 9 9 7 6 8 7 6 5 4 3 3 3 3 3 4 3 2 2 2 1 3 4 2 2 2 2 2 2 1 0 0 -0 -0 -0 -0 -0 -0
17 20 19 17 18 18 18 16 9 7 10 11 10 9 8 8 9 9 6 3 5 8 8 9 10 9 9 10 9 8 9 10 10 10 11 10 10 10 5 -1 -0 1 5 8 7 5 6 7 7 8 9 10 7 3 3 5 4 4 3 2 2 1 2 2 2 3 2 2 3 2 1 3 3 2 2 3 2 2 2 0 -0 -0 -1 -1 -0 -0 -0 -0
18 19 18 17 18 18 18 16 11 9 10 8 7 7 7 8 10 10 8 7 8 9 10 10 9 9 9 9 9 9 9 10 11 11 11 10 9 7 3 -1 -0 2 5 8 7 5 6 7 7 8 9 9 6 2 3 3 4 4 2 0 1 0 1 1 1 1 1 1 2 1 0 2 3 3 3 3 2 2 1 -0 -1 -1 -1 -1 -1 -1 -1 -0
16 16 16 16 18 20 20 17 14 11 10 8 9 9 7 7 9 10 10 9 9 9 11 11 9 9 9 7 8 10 10 11 11 10 9 10 8 4 1 -0 1 4 5 6 6 6 7 8 8 7 7 7 6 5 5 5 5 4 1 -0 -0 -0 -0 0 0 -0 -0 1 2 -0 -1 2 4 4 3 2 1 1 -0 -0 -1 -1 -1 -1 -1 -1 -1 -1
16 17 17 16 15 16 14 12 13 13 11 11 12 11 9 9 8 8 9 9 7 7 10 10 8 8 7 6 7 8 9 11 12 9 8 9 8 4 0 -1 1 3 3 2 1 4 7 8 7 7 6 5 5 5 6 6 6 4 1 0 0 -0 -0 0 0 -1 -1 1 1 -1 -1 1 3 3 2 1 1 -0 -1 -1 -1 -1 -1 -1 -1 -1 -1 -1
19 19 18 17 13 10 9 7 10 14 13 13 14 10 10 12 9 6 7 9 7 6 8 9 7 8 8 8 10 10 9 9 9 9 9 9 9 5 -0 -2 1 2 1 0 -0 2 6 6 6 8 7 5 5 6 6 6 5 4 3 1 -0 -0 -0 -0 -0 -1 -1 -1 -1 -0 0 0 1 1 0 0 -0 -1 -1 -1 -1 -2 -2 -1 -1 -1 -1 -1
18 17 15 16 15 14 12 8 9 12 12 12 14 11 10 12 11 9 8 8 8 7 8 8 7 9 10 9 11 11 10 9 8 9 9 8 8 5 -0 -1 2 2 1 1 1 3 7 7 6 6 6 6 6 5 5 5 3 4 3 1 -0 -0 -1 -1 -1 -1 -0 -1 -2 0 0 -1 -1 -0 -1 -1 -1 -2 -2 -2 -2 -2 -2 -1 -1 -1 -1 -1
16 14 10 12 15 15 14 12 9 10 10 10 10 9 11 12 12 12 10 9 8 8 10 10 9 8 8 7 9 11 10 10 10 9 9 7 6 6 4 3 3 2 3 4 2 3 6 6 5 4 4 5 4 4 4 4 3 3 2 0 -0 -1 -1 -1 -1 -1 -0 -2 -2 -0 -1 -2 -1 -1 -1 -1 -2 -2 -2 -2 -2 -2 -2 -2 -2 -2 -1 -1
13 13 8 8 11 11 9 8 8 10 11 11 10 10 12 13 12 10 8 10 11 10 10 13 11 7 6 6 8 10 9 9 10 8 8 7 5 6 7 6 4 2 3 4 2 2 4 6 5 3 3 3 4 4 4 4 3 3 1 -0 -1 -1 -1 -1 -1 -0 -1 -1 -1 -1 -2 -2 -1 -1 -2 -2 -2 -2 -2 -2 -2 -2 -2 -2 -2 -2 -2 -2
14 16 12 10 10 8 6 6 9 13 13 11 12 12 9 12 13 9 7 10 13 12 9 11 11 7 6 5 7 10 9 9 9 7 6 6 5 5 6 6 5 4 4 4 2 2 4 6 4 2 2 4 5 4 4 3 2 1 0 -0 -0 -0 -0 -1 -1 -1 -1 -2 -1 -2 -2 -2 -2 -1 -2 -2 -2 -2 -2 -2 -2 -2 -2 -2 -2 -2 -2 -1
13 13 13 16 13 8 8 8 8 14 15 12 13 12 9 11 11 9 9 9 9 11 10 9 10 7 5 5 7 9 8 7 8 7 6 6 5 5 5 4 3 4 4 3 1 1 2 4 3 0 1 4 5 4 3 2 1 -0 -0 -0 -0 -1 -1 -1 -1 -1 -1 -2 -2 -3 -3 -3 -2 -2 -2 -2 -2 -2 -2 -2 -2 -2 -2 -2 -2 -2 -2 -1
12 11 11 16 15 8 8 9 9 14 15 10 9 9 9 10 6 7 11 10 6 8 7 6 8 8 8 9 9 8 6 4 4 3 2 3 2 2 2 2 2 3 3 2 -0 -1 -0 2 2 -0 1 4 4 2 2 2 2 1 0 -0 -0 -1 -1 -1 -1 -1 -1 -1 -3 -4 -4 -3 -2 -2 -3 -3 -3 -3 -3 -2 -2 -2 -2 -2 -2 -2 -2 -2
Height
801 801 800 801 800 800 800 800 800 800 800 799 799 798 797 797 796 795 795 795 795 794 793 792 791 791 790 790 791 791 790 790 789 788 789 794 795 793 791 790 789 788 787 787 785 784 783 783 782 782 781 783 788 790 789 791 793 793 797 804 803 807 805 798 797 798 796 791 787 790 796 797 794 796 796 794 794 793 790 787 787 785 780 777 774 772 772 771
801 800 800 801 800 801 800 800 800 800 800 799 799 798 798 797 796 796 796 795 795 794 794 792 792 791 791 791 790 790 790 789 789 789 792 795 794 792 791 790 789 788 787 786 785 784 784 784 783 782 782 784 789 789 788 791 792 794 802 804 800 800 797 793 791 792 794 790 788 792 799 801 798 798 798 794 791 794 792 785 785 782 777 774 773 773 771 771
801 801 801 801 801 801 801 801 801 800 800 799 799 798 798 797 797 797 796 796 795 794 794 793 793 792 791 791 790 790 789 789 790 792 795 795 794 793 791 790 789 788 787 786 786 785 784 784 783 784 784 786 791 791 788 791 793 796 802 800 795 794 793 794 794 791 793 794 793 797 803 802 800 801 800 797 793 793 792 785 782 779 774 771 771 773 772 770
801 801 801 801 801 801 801 801 801 801 800 800 799 798 798 797 797 797 796 796 795 795 794 793 792 791 791 789 789 789 788 790 794 796 796 795 794 793 791 790 789 788 787 787 786 785 785 784 784 785 785 787 793 794 791 793 795 798 799 793 791 798 795 792 794 795 798 802 801 800 803 800 800 804 800 798 797 790 786 783 782 780 776 772 770 772 774 773
801 801 802 802 802 801 801 801 801 801 800 800 799 798 798 797 797 797 797 796 795 795 794 793 792 790 790 788 788 787 787 795 800 797 796 795 794 792 791 790 788 787 787 786 785 785 784 784 784 785 787 788 792 792 793 797 798 797 795 792 795 803 797 793 799 801 803 805 803 802 802 799 801 803 799 798 799 790 782 781 784 784 781 779 776 774 774 774
801 802 802 802 802 801 801 801 801 801 800 800 799 799 798 797 797 796 797 796 796 795 793 793 791 790 790 789 789 785 789 800 801 797 797 796 794 793 791 790 788 787 786 786 785 785 784 785 785 787 789 790 794 794 795 802 802 796 794 796 802 805 799 797 801 802 805 804 801 803 804 804 802 798 800 800 796 789 784 785 787 786 785 783 781 777 775 775
802 802 802 802 802 802 802 802 802 801 801 800 799 798 798 797 797 796 797 796 796 795 793 793 791 791 790 790 790 788 793 801 800 798 797 796 794 793 791 790 789 786 787 786 785 785 786 786 786 791 792 792 797 797 799 803 803 800 796 796 803 806 801 800 802 802 804 804 804 807 804 802 797 796 801 797 792 792 790 789 789 788 786 782 781 780 778 778
803 803 803 803 803 803 802 802 802 802 801 800 799 798 798 797 797 797 797 796 796 795 794 793 792 791 790 790 791 793 798 801 800 798 797 795 794 792 791 790 788 787 788 786 787 787 787 788 790 795 793 795 799 799 802 802 801 802 797 797 803 804 803 803 803 800 800 805 808 807 801 797 797 799 798 791 791 795 792 790 790 787 784 782 782 783 782 781
803 804 803 803 803 803 803 803 803 802 801 800 799 798 798 798 797 797 797 797 796 795 795 793 793 792 791 792 792 796 802 801 800 798 796 795 793 792 791 790 789 788 788 788 789 787 788 791 793 795 793 798 801 800 803 799 799 802 798 800 801 801 804 804 801 798 799 805 808 803 796 795 799 799 792 791 796 797 794 792 791 788 786 787 788 787 786 784
804 804 804 804 804 804 804 803 803 802 801 800 800 799 799 798 798 798 797 797 796 796 795 794 794 793 792 792 793 800 804 801 800 798 796 794 792 792 791 791 790 789 789 790 790 789 791 792 793 795 794 799 801 802 804 800 800 804 802 802 803 805 805 804 801 800 802 804 807 802 794 797 800 795 794 799 801 798 797 796 795 793 793 795 793 792 791 789
805 805 805 805 804 805 804 803 803 802 801 800 800 799 799 799 798 798 798 798 797 796 796 795 795 795 795 794 796 804 804 800 800 797 795 793 791 791 791 791 791 791 791 791 791 791 792 792 794 794 793 798 800 803 804 803 804 806 804 798 801 808 805 805 803 801 803 798 803 803 795 796 795 798 808 810 806 802 801 800 799 799 799 800 798 796 794 793
805 805 805 805 805 805 804 803 803 802 801 800 800 800 800 799 799 799 798 798 797 797 796 796 795 795 795 795 798 804 802 801 800 796 794 792 791 791 791 792 791 792 792 792 793 792 792 793 793 793 797 800 800 801 802 806 809 807 805 795 795 803 802 805 803 801 802 796 800 799 790 791 799 813 820 813 809 806 802 801 802 803 803 802 801 799 797 797
806 805 805 805 805 804 803 803 802 802 801 801 801 800 800 799 799 799 798 798 797 797 796 796 796 795 795 798 802 803 801 801 799 795 793 792 792 792 792 792 792 792 792 793 793 793 793 793 793 795 800 800 800 802 802 809 809 805 811 806 798 797 795 802 806 801 799 799 800 795 786 791 810 827 824 816 814 807 803 805 806 805 805 804 803 801 800 799
806 805 806 805 805 804 803 803 802 802 802 801 801 800 800 799 799 799 798 798 798 797 796 796 796 795 796 801 802 801 802 802 798 795 794 793 793 792 793 793 792 793 793 793 794 794 794 794 794 796 801 803 804 804 803 808 807 805 809 811 813 806 793 800 811 805 798 803 802 795 790 792 814 831 825 822 819 811 811 811 810 808 806 806 805 804 802 802
806 806 806 805 805 804 804 803 803 803 802 802 801 800 800 799 799 799 798 798 798 798 797 796 796 795 798 802 801 802 802 799 798 797 796 795 794 793 794 793 793 794 793 794 794 795 795 795 796 799 803 803 804 803 801 803 808 812 805 803 819 818 805 806 813 814 809 808 804 798 794 795 818 834 827 825 821 815 816 815 813 811 809 807 805 805 805 805
806 806 806 805 805 804 804 804 804 803 803 803 801 800 800 800 799 799 799 799 798 798 797 797 797 796 801 805 802 802 802 800 800 800 799 797 795 795 794 794 794 794 794 795 794 795 795 796 802 807 806 804 808 807 801 802 810 821 819 812 818 818 816 810 808 820 820 810 807 806 802 804 824 834 828 828 824 819 818 818 818 814 812 811 807 807 804 802
807 806 806 806 805 805 805 804 804 804 803 803 802 801 800 800 799 798 798 798 799 799 797 798 797 796 802 806 805 805 806 804 803 802 799 797 797 796 795 795 795 795 795 794 794 796 796 799 807 810 811 816 822 813 803 814 820 824 829 828 827 828 828 817 806 816 819 810 812 812 812 820 832 835 832 830 827 824 822 822 821 818 816 815 812 810 806 804
807 807 806 806 806 805 805 804 804 804 804 804 802 802 801 801 800 799 798 798 798 798 798 799 798 803 809 808 810 812 809 807 805 802 799 798 798 796 796 795 796 796 795 795 796 799 800 803 806 806 813 823 831 826 817 828 833 829 833 834 835 835 831 822 811 814 818 814 815 812 818 833 838 836 835 833 830 827 826 826 823 821 819 817 815 813 810 809
807 807 807 807 806 806 805 804 804 804 804 804 803 803 802 801 801 800 800 800 802 806 810 812 810 816 820 815 814 813 809 808 806 803 800 798 798 797 797 797 798 798 798 800 801 808 809 806 809 812 821 829 838 842 833 834 838 837 843 843 842 840 830 822 814 817 822 816 813 816 825 840 841 839 839 835 832 829 828 828 825 822 821 819 817 816 814 813
808 808 807 807 807 806 806 805 805 805 805 804 803 803 803 804 805 808 809 808 812 818 821 822 819 821 821 817 816 812 809 808 807 806 802 799 798 797 799 800 800 802 810 814 811 817 819 815 824 830 834 838 842 848 845 845 848 846 849 846 845 846 835 821 815 821 824 815 816 826 835 843 844 842 842 837 832 829 829 829 826 824 822 820 820 818 817 815
808 808 809 808 808 807 806 806 806 805 805 805 803 804 808 810 810 813 816 817 820 821 820 822 822 821 820 819 818 815 813 809 806 807 803 802 799 798 804 806 803 808 823 829 823 821 820 822 835 839 841 845 847 853 851 849 851 849 848 843 840 841 830 815 813 822 824 817 820 829 836 844 846 843 843 839 833 831 833 833 829 826 823 822 821 819 818 817
809 809 809 809 809 808 807 807 807 806 806 805 804 807 811 812 811 813 814 817 821 821 821 822 822 821 821 819 819 817 815 811 807 806 806 804 801 803 812 814 813 819 828 828 821 819 821 827 837 843 849 851 851 855 850 845 846 846 848 843 833 829 823 811 810 821 825 819 819 825 832 841 846 844 843 840 838 837 836 835 832 828 826 823 821 821 819 816
809 810 810 810 810 809 809 808 808 807 806 806 807 809 811 811 812 812 812 816 820 822 822 822 822 823 820 819 820 817 815 819 819 815 812 809 809 815 819 820 821 825 829 826 820 822 826 831 839 849 850 843 841 845 844 839 839 841 843 835 824 825 827 815 808 817 825 824 823 825 832 843 845 842 842 841 839 839 837 835 834 829 827 827 825 823 820 816
810 810 810 810 810 809 809 809 809 808 807 808 809 810 812 812 812 812 814 820 823 822 822 822 822 823 823 823 822 820 820 826 829 824 820 817 818 822 824 828 827 824 834 838 830 826 829 836 846 851 845 837 832 835 839 835 832 835 834 828 822 825 831 826 819 820 822 826 830 824 819 830 842 841 841 843 838 838 837 834 831 829 828 828 825 823 822 820
810 811 811 811 811 810 810 809 809 809 809 810 810 811 812 812 812 812 814 822 824 822 821 822 823 824 826 826 823 825 825 827 831 830 826 825 824 824 828 835 831 826 837 843 834 827 829 841 848 841 835 835 831 831 838 838 834 831 826 825 824 825 832 833 834 830 814 809 821 820 802 809 837 845 841 842 840 837 837 833 830 830 828 826 825 823 822 821
811 811 812 811 811 811 809 809 810 810 810 811 812 812 812 812 813 812 815 824 829 829 826 823 825 827 827 828 827 827 826 827 831 833 829 828 829 827 829 836 835 832 838 841 836 831 833 841 842 834 831 832 829 830 838 842 836 825 823 829 829 833 835 832 835 831 810 801 816 822 804 801 824 838 838 841 841 839 836 834 833 832 830 828 828 825 823 821
811 812 812 811 812 810 809 810 811 811 811 812 813 812 813 813 813 812 816 829 837 838 835 830 830 832 831 835 832 827 832 836 831 831 832 830 831 828 829 836 836 836 844 843 833 832 835 833 832 832 831 828 827 830 836 841 835 821 825 834 831 830 829 829 835 829 820 815 815 820 815 802 800 819 840 841 838 841 838 836 836 834 833 831 829 827 824 823
812 813 812 812 812 811 811 812 811 812 812 813 813 813 814 813 814 814 819 840 851 843 841 840 835 836 837 839 837 835 842 845 836 834 835 832 831 829 830 839 838 835 844 840 828 834 838 831 831 833 830 828 828 831 837 842 834 822 828 836 832 830 830 834 832 826 834 827 804 806 817 807 792 808 840 841 835 843 840 838 839 834 834 832 829 828 824 823
813 813 813 813 813 812 813 812 812 813 813 814 814 814 814 812 814 816 823 847 856 845 845 845 836 842 847 842 841 845 846 845 845 842 838 836 834 832 834 842 842 838 843 841 832 836 839 836 841 838 832 832 830 831 838 840 834 827 832 832 827 833 837 839 831 823 830 818 798 802 811 809 794 794 825 836 836 846 842 838 838 833 834 831 827 827 823 822
814 814 814 814 813 813 813 812 813 814 813 814 814 814 814 813 816 822 837 856 857 851 852 849 848 858 858 845 840 848 849 848 853 848 841 843 840 836 840 844 842 836 838 841 834 836 842 845 848 842 837 839 836 835 838 841 838 831 832 825 816 824 832 837 835 825 818 806 802 809 811 815 804 798 826 838 834 843 842 838 836 831 831 829 826 825 821 820
815 814 814 814 813 814 813 813 814 814 814 814 814 814 814 819 827 837 855 863 858 858 857 856 863 867 866 862 853 852 852 851 854 849 844 849 848 845 844 847 848 837 834 839 833 833 837 837 840 842 844 846 842 837 837 843 843 835 832 826 816 819 823 823 823 822 819 810 805 809 814 818 807 805 831 840 834 840 839 836 835 831 830 828 825 824 821 820
815 815 815 814 814 813 813 814 814 814 815 814 814 815 814 824 842 858 869 863 857 866 867 868 872 869 872 874 865 862 860 854 855 856 856 859 863 865 862 865 866 851 844 850 844 836 831 829 837 843 845 847 842 836 834 837 838 836 836 833 831 835 835 828 825 826 826 815 804 808 820 819 804 806 830 838 835 837 835 835 835 831 830 827 824 823 821 820
816 816 815 814 814 813 813 814 813 813 814 814 815 817 818 832 857 877 878 865 865 877 880 879 878 876 876 866 861 869 865 857 857 860 864 863 864 869 871 875 875 862 855 858 856 848 836 832 836 837 839 843 840 839 839 835 837 842 842 840 843 853 859 854 843 837 832 817 803 809 823 816 799 808 831 835 833 834 833 833 832 830 829 826 824 824 822 820
817 816 815 815 814 814 814 813 813 814 814 814 815 816 825 846 871 883 878 874 880 883 884 886 880 875 872 863 867 873 862 857 862 860 859 858 859 864 868 872 874 872 865 863 867 865 852 841 836 836 840 840 839 846 849 843 844 849 850 846 846 854 866 865 851 843 841 828 814 816 820 807 796 812 830 833 832 834 832 831 831 830 827 825 824 823 822 821
817 817 816 815 815 815 815 814 814 814 813 814 821 829 842 863 881 884 880 884 888 884 884 889 879 864 861 865 875 877 865 859 862 861 858 861 866 869 872 875 877 878 870 864 873 876 865 852 842 844 849 843 841 849 852 847 845 850 853 851 851 855 859 856 847 845 850 847 835 827 815 802 809 827 836 836 836 835 833 831 830 828 825 825 824 821 819 815
818 817 815 815 816 815 815 815 814 815 815 814 827 852 869 878 884 886 887 889 891 891 884 879 874 863 859 864 867 870 871 866 862 860 860 868 874 873 876 879 881 883 876 871 877 876 866 854 843 846 848 844 847 850 851 852 845 846 853 854 856 858 855 854 852 850 857 859 843 826 814 806 815 830 838 841 838 833 832 829 826 824 823 823 821 817 813 810
818 818 817 817 817 817 816 816 815 815 815 817 836 868 887 889 889 892 894 894 896 900 885 868 871 873 869 868 863 864 868 866 864 862 860 868 872 872 877 879 881 884 882 880 878 877 877 862 850 853 846 844 856 854 851 858 852 848 855 857 855 855 854 862 868 864 865 864 843 825 822 817 815 825 838 842 836 831 830 826 823 823 823 822 819 815 813 811
819 818 819 820 820 819 817 816 818 815 815 831 858 882 890 890 893 896 898 898 899 897 881 870 874 878 878 874 866 871 873 865 865 867 864 866 869 874 879 878 880 883 886 885 875 878 886 867 853 862 856 847 854 852 849 857 858 855 858 861 862 863 864 869 876 875 874 870 851 833 829 822 815 823 835 838 835 833 831 826 824 825 824 823 819 815 813 810
819 819 822 825 823 822 820 817 820 817 820 846 872 882 886 889 894 899 900 898 898 890 879 878 882 879 880 879 872 879 883 875 873 873 869 868 870 878 883 881 881 883 887 887 878 880 887 871 855 859 858 849 847 850 854 858 860 860 862 867 873 873 873 876 878 876 875 872 858 845 835 823 817 826 836 838 836 833 828 825 825 826 825 822 818 815 812 809
820 821 826 828 823 825 823 815 819 827 839 864 880 882 888 890 891 899 903 898 893 886 880 883 886 879 878 882 882 886 888 885 884 878 873 874 873 876 887 889 884 885 887 886 885 885 883 877 864 855 854 853 851 858 861 858 861 865 867 875 881 877 876 880 879 872 874 875 869 862 846 825 821 832 837 836 833 830 827 827 828 827 824 821 817 813 810 807
820 823 829 828 825 826 820 819 839 856 864 877 883 884 890 891 888 894 902 902 895 888 887 887 886 883 881 882 886 892 890 886 887 883 877 877 874 874 889 898 894 893 888 880 883 886 882 881 877 867 861 855 855 865 866 861 865 871 874 879 886 887 883 885 880 868 871 875 873 875 859 829 825 835 834 832 832 829 829 830 829 827 824 819 815 810 807 804
822 829 833 829 826 824 820 837 868 878 874 879 884 887 891 891 888 889 896 901 896 890 890 889 888 890 890 887 889 893 891 884 882 882 879 880 879 879 893 906 906 903 892 880 885 890 886 886 884 875 866 859 866 880 877 872 873 876 883 887 890 893 891 890 887 875 874 873 868 874 861 831 827 834 830 830 832 830 831 832 830 827 823 818 812 807 803 799
829 834 833 829 828 824 825 849 876 880 881 889 891 892 894 891 887 887 891 894 892 888 886 887 889 890 890 892 891 889 887 882 879 879 880 883 886 890 900 907 905 900 892 883 886 889 887 887 881 871 864 861 871 883 881 877 876 878 889 896 895 897 896 893 890 886 886 876 869 878 864 830 824 830 828 830 833 831 832 832 830 825 821 816 810 804 799 795
835 836 835 831 826 823 830 851 869 877 885 889 886 887 892 893 889 887 888 889 890 889 884 885 890 889 891 897 895 888 885 880 877 881 884 883 888 898 906 907 901 896 892 889 890 888 882 881 882 880 880 874 869 873 874 870 871 880 894 900 898 899 899 894 893 898 893 872 868 885 869 831 819 826 829 832 833 832 832 832 829 824 818 813 807 800 796 791
834 836 838 837 830 832 847 862 866 871 881 881 880 886 889 889 892 892 891 891 896 896 887 887 893 893 895 899 895 892 890 882 878 883 887 884 887 899 907 907 902 899 898 901 902 894 884 885 887 888 898 901 891 885 879 870 872 880 892 899 897 897 898 894 895 903 894 873 872 884 867 833 822 828 832 834 834 833 833 830 825 821 816 810 803 796 791 787
834 839 844 845 845 849 864 877 871 867 875 875 876 887 888 882 889 897 895 891 895 898 893 891 894 892 892 892 887 886 888 887 886 885 884 883 885 896 908 908 904 902 902 904 905 898 891 892 890 886 894 901 895 886 879 876 880 879 883 894 898 898 899 897 898 900 894 883 877 871 860 842 832 834 835 834 835 835 832 828 822 817 812 806 799 793 787 783
838 850 858 854 853 858 866 877 877 873 877 875 876 887 889 883 887 892 892 892 894 896 894 894 895 890 888 888 883 881 884 888 890 886 885 888 889 895 907 909 903 901 902 903 903 899 891 890 893 893 892 890 888 885 881 884 886 879 880 892 899 899 900 900 901 896 891 891 877 859 857 854 841 838 838 836 837 835 831 828 821 814 809 804 798 791 784 779
844 858 870 862 859 866 867 873 881 881 880 882 887 892 888 884 886 885 887 892 893 892 888 887 892 895 896 896 889 883 885 884 883 883 886 892 895 893 896 901 902 902 900 898 902 902 892 890 898 901 895 891 891 889 885 884 884 882 886 894 897 900 901 900 899 892 889 892 879 861 861 859 846 841 840 838 838 834 830 825 819 812 806 801 794 787 781 775
852 859 871 868 868 879 883 883 885 881 878 883 888 891 886 882 885 892 895 890 884 888 887 880 886 897 901 902 895 887 889 888 884 888 890 894 899 895 890 893 899 902 901 899 904 908 897 889 896 904 902 894 888 885 884 883 882 883 891 897 897 898 898 896 894 889 887 887 878 868 865 858 850 846 842 838 836 832 826 820 813 807 799 794 789 782 776 770
848 850 862 867 873 886 890 890 884 874 877 883 880 886 893 886 884 894 899 890 879 884 889 884 887 897 901 903 897 889 891 892 889 893 896 897 901 900 895 897 899 900 901 903 907 908 899 891 898 910 908 893 882 882 883 882 885 888 892 895 897 894 892 893 893 889 886 882 874 871 868 858 851 848 843 837 832 827 823 817 810 803 795 789 783 777 771 766
843 846 851 854 870 888 887 889 888 874 873 882 881 887 894 889 889 893 892 893 890 885 889 890 889 897 902 902 896 889 892 895 893 894 897 898 901 902 900 905 907 903 902 909 913 913 908 901 905 915 909 889 881 885 883 880 886 894 896 895 895 895 892 892 893 891 887 881 873 871 869 860 850 846 840 832 827 824 819 814 809 801 792 785 780 774 769 764
844 848 849 847 866 889 889 886 887 875 875 889 892 893 893 891 900 899 885 889 897 894 895 897 893 894 894 889 888 891 895 898 898 900 902 902 905 907 906 908 911 909 908 914 920 923 921 912 910 919 910 887 883 890 887 879 878 884 894 897 895 896 893 889 889 887 883 881 878 874 868 858 850 845 837 827 822 820 815 809 805 800 791 782 776 772 767 765
Wind_Speed
2 4 6 7 7 8 8 8 9 9 10 9 10 10 10 12 13 12 8 8 9 11 13 13 13 12 10 7 6 6 6 13 19 23 18 10 14 16 14 11 9 11 11 9 10 6 5 8 9 9 4 3 4 1 1 2 2 3 3 2 3 3 3 5 6 6 3 3 6 3 2 0 7 4 2 4 2 4 7 7 5 5 9 14 17 16 15 14
3 6 7 7 8 8 8 9 9 9 9 9 10 9 10 12 13 11 7 7 9 10 12 12 11 10 9 7 5 4 3 9 18 19 14 13 17 16 12 10 8 10 10 9 10 7 5 4 6 6 5 2 2 0 1 1 2 3 3 2 4 5 5 5 6 5 3 4 6 4 3 0 5 4 3 5 7 6 7 10 4 6 12 14 18 20 20 18
5 7 7 7 7 7 8 9 9 9 9 9 9 9 10 11 12 10 6 6 8 10 11 10 10 8 8 6 4 3 1 6 13 11 13 17 17 15 13 11 9 9 9 7 7 5 3 1 1 4 4 2 1 2 2 2 1 1 3 1 5 5 4 4 5 6 4 4 6 6 3 2 4 3 3 3 9 8 7 9 4 7 11 12 10 9 12 15
7 7 7 7 6 7 8 8 9 9 9 9 9 9 10 11 12 9 5 5 7 9 10 10 11 9 7 6 7 2 2 6 6 8 13 17 17 15 13 13 13 10 7 6 5 4 2 1 3 4 3 2 3 3 1 1 1 2 3 4 5 2 2 4 4 5 4 1 3 5 5 7 3 0 2 1 6 9 6 6 4 9 14 16 14 9 9 10
7 7 6 6 6 8 8 8 9 8 9 9 9 10 11 11 10 7 4 5 7 8 10 11 12 11 7 8 9 2 4 6 4 10 15 17 17 16 14 14 16 10 5 5 4 2 1 2 5 5 4 1 3 3 1 2 2 1 3 4 3 3 2 5 0 1 3 2 3 5 6 7 2 1 2 2 3 6 6 6 6 10 12 14 15 14 13 11
7 6 6 6 7 8 8 8 8 9 9 9 10 11 10 10 8 5 5 5 7 9 10 12 13 10 8 11 14 6 6 3 6 11 15 16 17 16 14 14 15 11 4 3 4 2 1 4 5 3 3 2 1 1 1 3 3 0 3 3 1 2 2 5 4 3 4 4 5 4 3 4 4 4 2 4 6 8 8 11 10 11 12 12 12 12 13 13
6 5 5 6 7 8 8 8 8 8 9 9 10 10 8 7 6 7 6 6 8 9 10 12 14 9 6 9 14 13 9 1 7 12 14 16 16 15 13 13 13 9 3 3 5 2 3 6 4 3 4 3 0 0 2 4 4 2 3 4 2 2 3 5 6 6 4 2 3 2 3 4 4 4 1 3 7 7 10 10 10 11 12 14 14 15 15 15
5 5 5 6 8 8 8 8 8 8 9 9 9 7 6 6 8 8 7 7 8 10 11 13 15 10 5 4 7 9 6 3 10 13 14 16 16 15 11 11 11 6 4 7 6 1 2 5 2 3 3 2 2 1 3 4 4 2 4 4 1 1 4 6 7 6 4 2 1 1 3 6 6 2 1 5 6 10 12 11 12 13 16 18 18 19 17 18
5 5 6 7 8 8 8 7 7 8 8 8 7 6 6 7 8 7 6 6 8 10 10 11 15 13 6 3 6 6 4 8 12 14 16 17 17 15 8 8 10 7 7 10 9 5 2 2 1 2 2 1 2 1 3 2 2 3 4 3 3 4 4 6 7 5 5 3 2 2 6 7 5 2 1 5 13 14 12 14 15 16 19 19 17 18 18 19
5 5 6 7 8 7 6 6 7 7 7 7 6 5 6 7 6 5 5 6 7 9 10 9 11 15 12 5 6 7 6 11 15 16 17 17 16 10 5 7 9 8 8 9 10 9 4 1 3 3 5 2 1 0 1 1 0 3 4 3 3 6 4 5 6 6 5 1 2 5 8 7 5 2 3 9 17 15 13 17 17 17 18 17 16 17 19 20
5 6 7 7 7 6 6 6 7 7 7 7 6 5 5 5 4 4 4 6 7 7 9 9 7 10 13 9 8 5 7 12 18 20 17 15 12 5 5 7 6 7 8 9 10 8 4 3 5 4 2 1 1 1 1 2 1 1 4 5 5 6 1 4 6 5 4 0 2 6 3 6 5 6 9 14 17 13 14 17 18 18 16 16 16 15 16 18
5 6 6 6 6 5 6 6 7 8 7 6 7 6 3 2 2 3 4 6 7 7 8 8 7 4 6 9 7 4 8 14 20 22 16 12 10 5 6 8 5 5 6 6 7 7 5 3 5 6 1 1 2 1 0 1 2 1 5 4 7 8 3 4 6 5 4 3 9 6 2 6 7 11 15 16 14 12 16 19 18 17 14 14 14 13 14 17
5 5 5 5 6 6 6 7 7 8 7 6 6 6 4 3 2 2 4 5 7 8 7 6 7 4 4 5 3 6 10 14 23 23 17 13 9 6 7 7 3 4 4 5 5 5 6 3 6 7 2 3 1 0 3 3 3 0 4 3 5 8 2 4 6 7 5 3 11 7 2 5 8 13 16 15 14 15 19 19 16 15 13 12 12 12 13 16
4 4 5 6 6 6 7 7 7 7 6 7 7 5 4 3 3 2 3 5 7 8 5 6 7 3 4 3 1 10 13 15 27 28 20 14 9 5 7 5 3 3 3 4 6 7 6 5 8 7 3 3 0 1 4 5 4 1 3 3 4 5 5 7 6 6 7 4 10 8 1 3 8 14 16 13 14 15 18 16 15 14 13 12 12 12 13 15
3 4 6 6 6 6 8 8 7 7 8 8 7 5 3 2 3 1 1 2 6 9 6 5 8 4 4 2 2 12 16 18 28 30 23 15 10 7 5 5 5 4 5 6 8 9 7 6 8 5 2 2 3 5 4 4 4 4 4 4 4 3 6 11 4 5 6 4 8 9 0 3 7 13 14 12 12 14 16 14 15 15 15 14 13 13 11 11
4 5 6 5 6 7 7 7 6 7 8 8 8 5 2 1 1 1 2 2 4 9 8 6 8 6 5 2 6 12 14 15 22 28 24 13 10 9 4 6 6 6 8 6 6 6 8 8 5 3 2 4 6 5 4 5 5 4 4 3 5 4 6 9 3 4 4 3 6 7 1 2 5 10 11 11 11 13 15 14 15 15 15 15 12 12 12 12
5 5 6 6 7 6 6 4 2 3 5 8 13 14 13 9 4 1 4 3 2 6 9 10 8 4 5 5 7 8 11 13 17 27 26 12 7 11 6 4 4 4 5 5 7 5 8 7 2 1 5 6 5 4 6 7 6 4 4 2 3 3 4 6 5 3 6 6 6 4 2 2 5 7 9 10 11 12 14 13 13 12 12 12 11 12 13 14
5 6 6 6 6 6 5 3 1 1 4 8 13 16 18 19 18 16 8 1 1 4 7 12 10 3 3 8 6 8 15 14 15 26 28 14 6 11 11 5 2 2 1 5 9 7 6 4 2 3 5 6 6 7 6 2 4 4 4 3 3 4 3 6 7 3 7 7 5 5 4 4 6 6 8 9 10 12 12 10 10 11 11 11 11 12 12 13
6 6 6 6 7 7 7 5 3 4 8 10 8 5 4 8 15 23 24 15 7 5 3 7 7 4 2 7 8 15 15 8 11 25 30 19 7 6 11 10 5 3 4 4 6 7 4 4 5 5 6 7 5 3 3 3 4 5 5 3 4 5 5 9 9 4 5 5 4 5 4 4 6 7 9 8 8 11 11 10 10 10 10 10 11 11 12 13
6 6 6 7 9 10 11 10 8 7 8 6 3 2 3 3 5 10 16 15 7 5 5 1 2 2 2 4 10 19 12 2 7 22 32 24 8 4 9 9 7 7 6 2 4 5 3 6 6 2 3 6 5 3 3 2 2 2 1 2 5 5 6 9 8 4 4 4 2 3 6 5 5 6 7 7 8 13 13 12 11 10 10 10 11 12 12 12
6 6 6 8 11 14 15 13 11 8 4 2 1 3 1 2 5 2 2 5 2 3 5 1 0 1 3 4 10 15 5 1 6 19 34 24 5 4 7 7 8 8 5 1 3 4 5 8 4 4 6 5 4 1 3 1 0 1 1 3 5 4 7 10 6 3 4 5 2 2 7 4 4 5 5 6 10 13 11 11 11 12 12 10 11 13 12 10
7 6 6 8 12 15 16 15 13 12 10 10 10 8 4 4 5 4 2 4 2 2 3 1 3 3 4 2 11 13 2 5 10 18 33 24 8 6 5 6 8 3 6 4 2 6 7 5 5 5 3 1 2 3 3 1 1 2 1 1 4 4 6 10 5 1 2 3 3 1 5 3 3 3 3 6 8 8 7 9 10 11 12 12 12 12 12 12
7 6 6 7 9 12 13 13 12 14 16 15 11 7 5 4 4 4 3 5 1 2 2 2 4 6 6 4 13 14 7 9 7 14 29 20 7 5 4 6 7 2 6 7 5 5 4 2 3 1 2 2 3 4 4 3 0 2 1 1 5 5 4 6 3 2 4 2 3 1 3 3 3 1 2 4 5 5 6 7 9 10 11 11 10 10 12 14
7 7 7 6 6 6 7 9 10 13 16 14 12 8 5 3 2 3 3 3 1 1 1 1 3 5 5 4 15 11 5 5 1 10 24 15 4 3 4 4 5 5 6 4 6 7 2 3 2 3 3 4 3 4 6 5 5 3 3 2 5 6 2 5 7 8 7 1 1 1 1 2 3 1 1 2 3 5 7 8 11 11 11 10 10 10 11 12
7 7 8 7 6 5 5 5 7 9 9 9 9 7 6 4 1 2 3 3 4 3 1 2 2 7 5 6 16 7 3 5 2 6 16 12 5 2 3 1 3 7 4 1 5 4 1 3 2 2 4 6 5 4 3 2 5 5 3 4 5 7 7 9 8 9 6 2 1 2 2 2 2 2 2 2 3 6 8 11 13 11 12 12 11 11 10 10
7 7 6 7 7 8 5 2 6 6 4 5 5 3 3 4 2 3 3 5 5 4 6 6 4 11 11 9 14 4 3 6 2 5 14 13 5 2 4 3 2 5 2 2 3 1 1 3 2 3 3 5 6 4 0 1 5 6 3 4 5 6 8 10 6 3 3 4 3 1 0 4 2 3 4 1 4 7 8 10 11 10 11 10 9 9 9 9
7 6 3 5 8 10 5 1 5 5 3 3 4 3 1 2 3 2 3 5 5 2 5 7 4 10 11 9 13 4 4 8 5 7 14 14 8 2 5 5 2 3 1 2 3 1 2 6 6 5 4 6 7 6 2 1 4 5 2 2 6 10 9 8 3 1 3 3 4 2 2 3 4 3 4 2 2 7 8 8 8 7 8 9 8 9 8 8
6 5 2 4 8 10 6 3 4 3 3 3 3 3 2 2 1 1 5 5 4 2 2 4 5 8 9 9 12 7 2 6 3 7 14 14 11 2 5 4 0 3 3 5 3 3 2 3 5 4 5 6 5 6 3 3 1 7 5 3 9 9 6 4 2 3 2 2 4 4 1 2 6 3 2 2 1 7 8 6 7 6 7 8 7 8 8 7
6 4 1 4 6 8 7 4 4 3 3 3 4 4 3 2 1 3 6 4 2 2 1 3 6 7 9 9 8 5 3 4 4 7 13 13 12 7 4 1 3 1 3 4 3 3 2 2 2 2 3 2 4 7 3 4 2 8 6 7 7 2 1 1 2 2 1 2 4 5 1 2 8 4 0 0 2 4 6 4 4 5 6 7 8 8 8 8
7 5 4 5 5 7 6 4 5 4 3 4 4 3 2 3 4 6 5 1 2 3 1 3 4 5 9 9 7 6 5 4 2 6 7 5 10 10 3 1 3 5 4 4 3 3 3 1 2 2 2 1 3 7 2 5 4 7 6 7 5 1 3 2 1 1 3 3 5 5 1 2 8 5 1 1 1 1 3 4 5 6 7 8 9 9 10 10
8 7 7 7 6 7 6 3 5 4 3 4 4 3 3 3 5 7 3 1 1 4 4 5 3 4 8 6 4 6 5 5 5 6 6 3 8 11 6 4 4 4 7 7 5 7 6 2 0 1 0 2 1 4 3 1 3 5 5 6 7 5 3 3 4 4 5 7 6 2 1 3 7 4 2 2 2 3 2 4 6 8 8 8 8 9 9 9
9 8 7 8 7 7 6 4 6 5 3 3 4 3 4 5 5 3 1 4 3 3 3 3 4 5 6 3 3 6 4 5 5 5 3 3 5 7 6 4 2 4 6 5 5 8 5 1 2 3 1 2 1 3 4 3 5 7 5 6 6 5 5 5 5 4 3 8 7 5 4 3 7 4 3 5 3 2 3 3 4 6 7 8 8 9 8 9
12 10 8 10 9 9 9 6 4 3 2 1 3 5 7 6 3 1 3 3 2 3 1 1 4 5 5 4 5 6 2 3 5 4 1 2 4 3 4 5 3 3 3 2 4 6 5 5 5 5 2 1 4 5 5 4 5 6 4 4 5 4 5 6 5 4 5 9 11 8 5 5 6 2 5 6 4 3 4 4 4 5 6 8 8 8 8 9
14 13 12 14 14 12 12 7 2 3 3 4 4 6 9 6 1 1 3 3 1 4 2 1 5 5 3 3 4 5 3 3 5 5 3 3 5 4 4 6 7 4 2 2 3 3 5 6 4 4 3 3 6 4 1 3 3 3 1 4 4 2 1 3 4 5 8 11 13 10 4 6 8 4 4 4 1 2 3 4 5 5 6 6 6 6 7 9
15 17 18 20 19 15 12 8 5 5 4 7 8 7 8 3 3 1 2 4 2 4 3 2 4 5 4 3 3 3 2 3 4 5 4 4 3 2 3 4 5 4 3 3 1 1 3 5 6 3 2 4 8 3 1 2 2 1 2 4 2 0 3 3 5 5 5 8 9 6 3 5 4 3 1 2 4 5 6 6 6 8 7 6 6 7 8 10
12 17 22 25 23 17 11 7 4 4 4 8 10 7 3 2 2 2 2 2 1 2 5 4 5 5 5 5 4 4 2 2 3 4 3 2 0 1 2 2 2 3 3 3 1 1 2 5 7 6 4 3 5 3 2 3 2 1 3 3 5 3 5 2 6 4 2 5 6 4 6 6 3 2 1 4 5 6 8 9 12 13 11 10 10 11 13 14
7 9 16 26 26 17 10 8 6 8 7 8 9 4 2 2 2 3 1 1 0 0 3 4 3 2 3 4 4 6 5 2 3 4 3 2 1 2 3 2 1 2 1 1 1 1 1 5 7 5 4 4 0 2 3 3 2 2 4 5 6 1 4 2 3 3 3 5 5 5 12 12 7 4 2 3 6 10 13 16 19 17 13 13 14 15 17 16
6 2 9 23 25 14 7 6 9 11 10 9 8 4 2 0 1 2 2 1 1 1 5 2 0 0 0 1 4 6 5 4 5 4 2 2 2 2 2 3 1 1 2 1 1 0 2 3 6 2 3 8 2 4 4 4 4 4 2 3 2 1 3 2 1 3 5 7 7 9 14 12 6 3 1 4 9 12 15 19 20 15 12 13 15 17 18 17
5 1 5 20 21 12 9 8 8 10 9 7 4 3 1 0 1 2 2 1 1 2 3 1 1 1 1 2 2 4 3 2 3 3 2 2 2 2 3 1 2 2 3 2 2 1 1 1 5 4 5 7 5 4 4 5 5 4 3 3 3 1 4 2 2 2 4 7 8 10 13 8 2 1 2 6 9 13 19 21 16 12 12 14 15 15 16 16
3 3 4 18 15 9 18 23 15 9 8 5 2 2 1 0 1 1 2 1 1 2 1 2 2 2 2 1 1 2 2 1 1 2 2 2 1 2 3 1 3 5 4 3 3 1 1 1 3 5 5 5 4 3 1 0 2 5 4 3 3 1 1 2 2 2 1 5 6 8 11 8 1 1 2 7 11 16 22 19 12 11 15 16 17 16 15 14
4 4 4 17 12 3 14 23 13 5 5 4 2 3 2 1 1 1 1 1 1 1 1 3 2 1 1 2 2 1 2 2 0 0 2 2 3 2 2 2 2 5 4 4 3 1 1 1 2 5 6 5 3 3 2 3 4 3 2 1 1 1 0 3 3 1 0 2 3 6 10 9 2 2 2 8 13 18 19 14 11 14 17 18 18 18 16 15
6 4 6 16 11 8 13 11 4 3 5 3 2 2 0 1 1 1 1 0 1 1 1 3 2 1 2 0 2 1 1 2 1 0 1 1 2 1 1 2 2 3 1 2 2 2 1 2 1 4 4 3 3 2 2 6 10 6 2 1 1 2 3 2 3 5 4 3 4 5 10 9 0 3 4 11 15 17 14 11 13 15 16 19 20 20 19 17
4 3 6 16 7 6 14 8 3 6 4 0 1 1 0 1 1 0 0 1 1 1 2 2 0 1 1 1 1 1 2 2 2 0 0 2 1 1 2 4 4 3 0 1 2 2 1 2 2 5 4 2 1 1 0 4 7 5 1 2 2 2 2 3 3 3 4 6 5 5 10 9 1 1 8 13 16 16 11 11 15 16 16 18 21 20 18 17
3 3 6 18 9 4 7 5 2 3 2 1 2 2 2 0 1 2 1 1 1 1 2 1 1 1 0 1 1 1 2 2 1 1 1 2 1 1 3 4 4 2 2 1 2 2 2 1 2 4 6 6 5 4 4 3 2 2 0 1 2 2 2 1 2 1 3 8 8 6 10 11 6 8 13 15 17 15 11 13 16 17 16 18 19 18 17 17
4 2 3 17 21 13 5 4 6 5 3 2 4 3 3 1 1 2 0 0 0 1 1 1 1 1 1 1 2 2 2 1 1 2 2 1 3 1 3 4 3 3 1 2 3 2 1 1 3 4 5 7 6 7 7 7 6 1 1 1 1 3 4 1 1 1 3 9 10 7 11 15 16 17 17 17 16 14 14 18 19 18 18 19 18 17 17 17
3 4 2 9 15 12 4 1 5 6 4 4 4 2 2 1 1 1 1 1 0 1 2 2 1 2 2 3 3 2 2 0 1 2 2 3 3 1 1 2 2 2 2 3 3 2 3 1 2 4 2 6 7 10 10 8 7 7 5 2 2 2 2 2 1 2 6 11 10 8 12 21 25 22 19 17 15 14 16 20 20 20 20 20 19 20 20 18
3 3 2 2 4 5 5 4 5 4 3 3 3 1 2 2 3 1 1 1 1 1 1 1 2 3 2 3 4 2 4 3 1 1 2 3 3 2 1 2 2 5 3 1 2 3 4 3 1 2 5 9 10 12 13 9 7 11 8 3 3 3 1 1 2 6 9 9 9 11 18 24 24 21 19 15 14 16 18 20 21 21 20 19 19 21 23 21
3 3 2 1 2 2 3 3 4 5 5 4 3 1 2 3 3 1 1 2 1 0 1 1 4 4 1 1 2 1 5 6 3 2 2 3 3 4 4 2 1 5 4 2 3 3 5 2 1 3 7 11 11 11 10 8 7 7 4 3 3 3 2 3 6 10 10 8 11 19 24 24 21 19 17 15 15 19 21 19 19 20 20 20 20 22 22 21
4 4 0 2 3 3 1 1 3 5 6 4 3 1 2 3 3 0 2 2 3 3 2 1 4 4 2 2 2 1 2 2 4 5 1 2 4 3 4 2 1 3 4 4 4 1 4 2 3 2 6 11 11 8 7 8 10 7 3 4 3 4 4 6 9 12 13 12 16 22 25 23 17 14 17 19 19 19 19 19 19 21 23 22 22 23 21 20
3 4 1 4 4 2 1 2 3 4 4 4 3 1 2 3 1 1 1 1 1 3 3 2 4 4 2 3 3 1 3 4 5 6 3 1 4 1 0 1 1 4 6 4 3 3 3 5 4 1 4 8 7 7 8 10 8 5 3 3 3 7 8 8 8 11 13 15 18 20 21 17 10 11 19 22 20 18 20 23 24 22 23 24 24 24 22 18
6 6 7 7 4 3 3 3 3 4 3 3 2 1 0 2 2 1 2 2 1 1 1 1 4 3 1 2 2 5 5 6 7 7 4 1 2 2 1 1 1 4 6 3 3 4 5 4 3 4 4 6 5 9 17 16 5 2 1 3 6 10 12 9 8 9 13 18 21 18 14 11 9 14 21 23 22 22 24 25 23 21 24 26 25 23 20 19
8 5 5 7 4 3 2 2 3 4 2 2 1 1 0 1 2 1 1 0 1 1 2 3 2 0 2 3 3 3 3 4 3 2 0 1 2 3 2 2 3 2 1 1 2 2 3 3 4 4 4 8 10 13 16 14 7 4 2 3 7 12 15 15 12 12 14 15 15 13 10 11 16 20 24 28 30 28 26 24 21 21 26 27 23 20 18 19
Wind_Direction
77 75 75 73 67 61 57 45 34 24 24 27 32 37 36 35 31 31 43 55 48 38 37 44 61 71 81 88 87 92 60 51 53 49 50 23 359 357 348 345 354 1 360 359 8 22 24 15 10 17 63 78 17 327 14 26 71 59 91 161 231 206 207 191 191 200 190 269 277 291 93 143 305 323 312 323 340 294 304 297 268 270 264 251 260 275 283 284
84 80 77 73 65 59 49 36 27 24 29 32 36 37 32 31 26 30 50 59 51 36 33 41 53 60 65 69 70 83 86 52 49 46 34 9 3 358 353 356 353 358 359 0 13 31 47 350 333 19 52 68 336 15 71 27 70 86 124 177 227 204 217 196 184 199 198 271 282 318 26 201 277 313 358 318 308 333 317 297 283 270 270 266 265 269 274 272
84 81 76 71 63 52 39 30 27 26 30 29 31 27 23 21 15 24 43 50 43 26 25 29 33 35 36 38 35 50 147 55 42 25 8 4 1 360 4 3 350 352 355 359 6 18 55 296 323 44 46 72 344 1 54 37 28 151 133 209 241 215 235 233 206 219 237 296 315 330 353 296 271 296 352 315 304 317 293 280 283 287 292 298 286 273 281 272
85 83 76 69 58 43 34 30 30 28 26 24 20 15 12 7 5 16 37 46 35 23 18 16 16 14 20 18 2 349 149 67 29 334 354 1 357 357 0 0 354 347 344 355 357 2 50 87 62 57 59 57 337 3 67 342 353 158 151 201 228 185 284 273 218 244 287 353 321 330 342 318 304 99 321 325 314 308 284 256 252 292 305 310 313 319 313 290
86 83 76 65 50 39 34 32 30 26 22 17 11 4 2 358 0 18 61 57 35 23 14 11 11 13 38 30 4 290 137 62 335 332 354 355 355 353 350 355 353 345 341 351 344 357 46 67 59 50 55 71 343 14 217 305 52 151 216 213 192 121 294 298 305 305 339 62 329 346 337 310 338 51 256 203 262 277 295 310 301 303 310 315 319 324 327 322
89 84 74 59 45 36 34 32 25 20 15 9 1 355 357 0 13 61 93 64 36 24 12 10 11 21 67 56 39 69 106 74 308 340 353 352 354 348 346 348 348 348 337 327 337 14 32 36 55 56 40 60 29 24 254 345 33 272 287 313 2 134 252 315 358 353 12 23 333 336 311 315 351 317 244 187 235 253 293 320 324 322 324 327 331 338 342 342
93 82 68 50 38 34 32 28 20 16 11 4 357 356 9 27 64 98 94 60 39 27 19 19 18 33 95 74 54 60 80 100 318 345 348 353 355 343 346 346 347 353 345 344 356 45 72 37 53 123 75 49 131 47 359 349 28 94 277 326 6 176 235 305 331 320 347 353 289 310 313 310 301 295 331 249 258 288 311 325 338 340 349 357 7 9 5 6
94 75 55 39 35 34 29 24 18 15 8 4 2 13 42 72 95 101 83 61 43 33 30 28 25 37 90 89 66 57 55 334 332 345 342 346 349 344 345 348 356 7 31 29 18 79 87 41 65 154 71 40 164 122 7 347 21 114 235 298 347 220 262 305 321 309 341 10 227 54 301 268 250 245 330 288 332 348 331 348 3 5 16 20 21 18 17 20
88 64 43 36 36 33 28 24 18 16 10 11 19 41 72 89 95 91 78 59 41 38 32 29 30 36 57 84 89 71 2 329 338 341 341 339 340 343 344 359 14 30 47 37 30 48 41 26 153 158 125 119 145 71 356 353 348 208 231 282 301 314 314 334 335 319 351 13 114 29 310 286 269 264 178 335 359 350 344 12 16 22 27 24 23 22 24 23
76 51 39 36 37 34 29 25 20 20 18 22 35 59 87 92 90 84 72 50 35 34 25 23 27 38 52 59 76 65 336 342 354 347 341 336 334 342 357 13 24 38 44 33 33 45 41 167 170 136 130 119 117 26 339 132 89 208 258 278 289 323 317 349 334 306 329 261 126 9 328 316 310 1 32 357 356 350 9 25 23 31 31 24 25 26 27 26
61 46 41 38 39 36 28 26 26 28 28 34 44 60 90 91 83 74 60 35 23 20 15 15 12 38 58 60 74 63 346 1 5 356 348 338 340 4 29 18 24 36 38 32 32 34 35 155 155 119 109 84 136 352 281 192 129 231 311 313 325 354 353 352 334 298 337 291 350 8 345 327 343 33 11 351 354 358 23 31 28 33 31 26 25 26 29 27
56 46 42 40 40 33 27 28 29 31 36 45 47 50 63 68 73 67 44 22 15 7 1 12 14 19 60 57 68 47 6 13 5 5 9 357 3 46 38 13 19 39 41 44 29 18 35 133 117 81 37 189 143 5 191 141 72 23 16 349 325 11 81 346 339 311 6 6 330 1 66 355 25 33 2 352 356 7 30 32 28 31 28 26 25 25 30 25
59 50 46 43 36 30 29 31 31 33 39 47 42 40 42 43 54 46 28 16 7 4 1 15 16 6 56 63 64 28 20 11 6 15 27 20 31 63 28 7 33 58 53 65 51 41 60 112 106 99 124 102 127 223 107 50 41 109 39 50 337 12 21 342 350 326 14 7 334 14 75 344 53 36 5 1 359 15 33 28 23 26 26 26 24 24 27 25
67 55 47 40 35 35 34 34 32 36 48 49 40 33 31 41 52 44 33 28 18 11 8 18 12 12 62 82 98 20 10 6 12 17 19 21 42 45 9 17 78 67 68 89 76 71 81 105 96 96 95 77 88 21 48 13 20 2 7 46 32 18 316 340 5 353 28 353 343 39 140 302 53 29 11 9 3 27 37 24 22 22 21 23 23 25 24 25
73 53 46 43 41 40 39 43 52 64 62 48 42 35 32 50 47 35 13 21 23 18 17 18 12 32 73 67 19 5 357 6 14 11 7 14 32 16 13 65 85 85 105 104 81 71 70 90 83 60 322 348 55 50 20 349 16 23 13 352 358 18 312 325 356 53 43 314 350 46 195 277 53 26 13 11 6 34 41 26 24 21 19 19 17 22 21 22
67 52 50 48 45 44 45 54 74 78 58 45 50 51 58 62 328 317 340 316 351 9 22 19 1 41 89 5 339 355 355 1 3 3 5 14 28 19 42 86 78 102 119 96 74 56 40 58 79 56 2 6 30 41 33 17 2 7 35 339 312 348 332 325 344 64 42 324 355 31 314 287 44 23 10 12 10 31 42 31 25 23 19 18 14 14 14 12
62 55 53 51 45 40 37 45 68 60 54 71 76 76 75 64 42 288 277 281 341 7 35 28 356 47 82 3 347 352 339 338 349 359 6 14 25 23 48 101 69 96 127 65 39 23 20 37 68 40 41 38 19 25 46 24 339 337 24 4 292 312 318 321 321 352 27 29 355 0 88 42 26 16 7 14 13 28 42 31 25 28 21 19 16 13 12 10
63 60 59 52 35 23 14 10 332 32 101 114 97 86 75 63 61 59 51 96 345 0 34 20 12 76 35 355 349 322 318 323 345 359 7 15 16 23 40 62 50 23 51 31 29 23 10 19 65 51 29 26 22 37 55 9 286 290 313 318 310 307 284 291 297 327 24 24 351 355 66 60 21 12 10 13 17 33 42 31 27 29 24 22 18 15 14 10
71 70 65 47 34 35 35 42 67 117 136 134 120 101 50 46 59 55 51 61 61 40 40 348 11 102 295 322 319 322 320 318 355 1 5 7 357 17 33 37 48 53 37 18 11 14 14 24 43 41 9 353 357 55 119 208 228 246 266 256 273 292 281 278 280 301 15 13 358 13 49 65 27 15 16 7 17 41 39 31 32 27 25 24 19 17 12 11
84 81 68 53 53 55 54 62 87 126 149 160 185 309 339 5 39 37 34 47 71 88 97 284 352 93 303 307 325 340 345 330 15 8 3 358 341 4 20 19 34 49 46 19 334 355 51 58 46 25 304 301 291 232 191 204 217 230 240 243 262 270 276 281 278 286 14 21 327 42 70 76 46 25 15 358 20 40 31 23 26 24 25 22 19 16 10 10
98 91 75 69 69 63 61 69 82 105 130 140 84 38 94 128 68 79 348 34 63 83 87 113 15 40 296 290 336 348 352 286 5 9 5 1 356 17 4 12 39 34 11 281 286 341 55 62 19 263 248 263 287 218 168 145 104 143 184 245 279 263 263 282 284 283 24 31 297 98 86 83 65 41 8 6 32 37 26 20 20 19 23 20 19 15 9 6
110 98 85 84 80 68 63 66 69 78 77 68 75 83 130 146 101 135 150 80 46 17 72 7 39 17 295 285 352 348 9 5 353 359 3 6 25 31 5 33 57 33 341 9 11 1 41 43 310 274 217 164 44 85 111 309 189 151 182 250 302 293 282 289 278 196 16 9 292 66 89 139 127 79 22 24 43 43 27 27 24 18 20 16 13 10 4 2
118 103 93 95 88 68 58 54 55 65 65 64 72 88 117 108 114 130 86 92 75 349 25 29 59 16 351 24 357 354 45 36 353 346 358 5 25 45 61 41 46 31 357 25 59 54 48 335 295 234 139 113 41 36 46 357 22 154 218 314 308 316 341 304 291 348 329 307 259 311 93 176 188 111 39 24 38 48 32 31 33 29 26 17 8 7 5 2
125 105 89 87 79 53 36 34 39 53 59 65 72 80 103 102 139 120 69 94 47 351 94 92 112 37 18 6 352 360 69 49 28 340 355 12 23 25 72 51 42 33 7 36 82 88 82 266 188 100 52 66 39 5 35 20 349 310 220 211 296 307 294 258 288 320 328 355 227 328 40 201 212 240 358 348 359 36 26 23 30 28 24 15 9 10 9 6
131 110 83 70 57 14 349 11 30 45 53 63 69 74 86 72 153 140 92 76 14 332 353 42 68 24 2 343 354 4 125 31 85 338 354 18 16 6 52 53 68 28 348 108 78 76 15 260 164 61 19 51 48 13 44 47 350 323 249 213 263 295 284 270 297 325 344 1 287 18 352 289 206 201 258 327 11 25 18 21 25 17 14 13 9 6 2 1
137 126 81 56 37 4 348 11 15 21 43 52 49 58 72 50 81 137 106 65 25 335 352 1 9 3 352 343 345 353 98 4 325 0 10 17 2 120 66 342 41 26 304 162 67 96 299 318 73 62 35 40 31 19 345 113 20 336 273 199 240 289 289 288 310 338 332 297 271 62 282 261 259 239 247 287 32 22 16 23 21 10 9 8 2 358 354 353
141 143 93 40 22 9 7 17 360 13 57 29 14 24 41 41 75 108 73 46 19 336 354 346 342 358 353 340 340 30 86 325 313 22 15 8 350 125 70 5 11 357 271 110 28 290 297 340 17 38 39 29 14 0 295 141 30 312 237 159 290 296 289 292 315 215 245 291 308 6 140 238 274 240 230 230 37 20 15 16 10 5 3 359 356 353 348 345
137 152 141 23 15 17 26 25 4 36 65 6 8 39 47 45 89 90 78 69 349 331 20 331 335 353 347 346 3 62 107 315 17 359 344 7 10 26 62 32 160 296 317 91 40 298 265 338 358 16 28 22 355 329 283 155 28 276 253 286 288 289 285 266 218 226 258 8 327 321 96 280 284 238 185 211 74 19 7 356 347 352 351 348 350 344 341 339
120 133 107 17 12 20 30 33 30 54 47 15 33 44 35 33 43 57 72 96 328 341 156 336 347 345 345 356 12 45 6 355 68 326 332 13 15 21 69 21 147 114 332 85 84 302 274 215 201 104 62 5 304 299 266 151 258 286 295 298 274 246 67 131 178 236 339 33 279 283 28 319 293 285 288 157 86 12 347 330 323 332 335 341 347 343 341 336
92 80 46 15 5 3 4 25 35 34 22 23 31 17 5 28 58 59 48 71 340 327 294 19 6 339 359 7 353 1 18 1 324 330 348 15 0 15 73 233 104 90 351 19 73 307 311 246 170 122 119 193 288 302 275 164 250 308 341 321 305 38 79 64 37 71 34 332 262 254 258 296 293 289 221 265 150 182 305 323 326 335 339 340 345 343 341 340
70 51 26 6 358 352 345 359 7 355 358 20 14 358 12 24 62 82 68 283 316 334 358 15 352 5 25 29 341 344 9 338 330 9 15 0 4 14 28 8 24 41 2 1 0 342 353 39 46 294 240 114 34 308 318 172 295 348 4 341 345 357 22 21 353 34 26 317 295 309 336 258 272 275 170 190 185 185 257 322 328 333 336 336 343 343 340 340
55 36 14 5 4 0 2 352 342 344 355 17 19 37 69 41 34 78 299 313 337 348 8 333 320 2 6 5 341 328 333 339 357 50 36 18 36 28 36 34 354 8 8 349 340 348 352 322 318 328 344 50 33 319 330 359 11 10 7 9 15 360 354 352 336 359 331 285 298 351 10 269 262 265 183 180 174 207 248 273 299 312 321 329 338 337 334 337
54 37 22 19 18 15 15 359 342 9 8 25 44 50 78 71 36 271 285 325 6 340 346 273 303 326 331 353 356 329 321 346 360 42 89 86 65 34 28 32 31 35 9 331 346 351 335 315 343 7 338 4 53 24 342 339 6 2 2 37 40 26 349 327 312 325 300 284 301 337 354 295 289 284 191 187 178 205 229 245 271 285 302 317 326 327 331 335
54 44 38 35 33 26 20 12 42 88 68 80 75 50 65 77 249 261 302 283 279 334 349 271 308 325 10 31 340 329 1 342 353 23 11 32 46 11 350 4 18 38 69 43 16 3 352 325 343 20 332 336 33 51 292 300 342 329 186 102 66 62 331 273 266 294 302 297 305 329 334 283 305 315 182 178 197 258 268 266 272 287 295 303 309 315 322 326
54 46 42 37 32 27 28 40 85 115 86 73 69 58 75 102 253 210 286 270 291 330 312 299 349 6 6 340 319 358 31 308 344 34 27 31 53 9 344 340 354 18 68 53 338 2 17 283 273 324 313 352 11 10 201 8 1 262 136 84 32 260 176 218 252 257 281 293 294 305 268 250 296 297 194 27 334 307 296 283 296 313 316 312 308 312 319 327
45 42 36 29 22 17 24 39 72 122 105 77 67 56 93 181 229 157 213 294 353 314 320 347 23 28 344 319 332 359 10 277 332 22 32 48 104 346 355 258 314 23 69 100 255 355 24 281 290 339 352 20 19 341 347 29 353 308 36 6 290 219 154 214 292 292 313 294 282 287 287 293 319 285 325 352 317 310 318 323 332 334 338 337 330 332 335 337
20 38 35 22 13 11 28 50 83 105 97 77 77 86 197 197 171 179 212 1 191 256 38 33 18 18 333 313 317 330 343 334 350 14 14 18 46 16 358 275 227 37 23 143 209 240 137 287 307 0 344 302 57 55 31 45 26 22 17 324 297 252 114 123 288 323 336 284 276 301 298 303 322 320 359 348 322 336 342 341 340 339 344 342 335 336 333 331
346 44 40 16 9 11 35 72 89 89 82 66 74 117 181 137 169 199 184 114 205 41 65 78 288 25 193 271 298 314 342 355 355 11 10 355 14 83 34 317 237 59 340 14 50 274 128 299 306 349 310 303 350 64 13 351 21 65 66 328 352 337 319 15 1 313 312 289 287 299 294 298 314 301 12 2 336 341 341 339 339 340 342 336 329 328 326 325
348 78 30 4 9 31 59 89 89 65 70 73 77 127 160 221 207 194 177 158 151 91 70 156 251 13 171 188 272 303 342 5 342 358 35 14 5 74 74 324 301 5 352 56 100 279 89 6 298 291 305 320 1 42 356 329 350 37 59 20 31 227 260 320 339 285 290 291 296 303 299 303 316 222 14 355 337 340 340 339 341 338 333 328 324 323 323 321
7 90 12 355 8 54 64 70 69 46 65 96 145 132 73 272 227 199 195 204 176 129 76 204 205 359 317 296 336 303 337 26 310 348 5 3 4 33 51 24 333 341 344 43 74 336 9 66 274 295 320 343 9 7 318 264 355 18 40 5 346 344 237 273 254 188 263 290 298 304 295 297 333 115 24 347 339 344 341 337 337 332 328 326 321 320 319 316
50 87 345 354 6 75 61 58 52 39 77 82 107 104 60 177 184 307 223 230 252 224 156 159 153 64 334 347 357 288 322 334 243 294 314 355 37 15 22 67 352 331 343 24 36 4 18 103 259 309 334 340 337 309 254 150 109 70 90 163 284 143 20 310 286 255 166 250 282 292 286 295 330 125 18 354 346 341 337 333 335 331 326 324 320 317 316 312
57 85 318 346 16 84 72 56 16 44 88 66 68 110 78 133 141 271 196 53 282 260 70 105 108 90 148 271 308 263 322 302 259 57 250 264 39 346 345 42 342 304 330 16 314 268 129 108 271 289 290 289 307 349 42 101 101 94 112 116 96 126 106 85 297 309 307 277 286 279 279 295 260 165 342 358 344 330 331 336 332 325 323 323 318 315 315 312
68 111 343 347 349 96 74 60 341 29 70 157 89 136 243 103 125 307 24 21 271 284 28 49 71 60 139 221 271 284 321 255 215 57 252 233 267 299 341 354 328 297 352 11 316 302 73 66 350 300 280 270 292 319 302 112 98 83 42 37 79 129 139 176 228 311 312 295 311 293 281 290 234 214 335 349 333 322 331 336 327 323 323 320 315 313 314 312
99 152 6 12 22 124 87 88 120 63 85 194 53 21 336 319 107 25 349 336 5 80 61 23 2 40 81 136 129 254 321 335 240 341 46 211 253 4 13 348 340 12 56 16 322 330 357 32 24 351 333 335 344 328 295 298 26 58 330 358 90 83 34 237 233 1 299 294 318 309 283 287 304 326 333 335 324 321 330 331 325 323 320 317 314 311 311 311
68 83 334 18 40 68 94 144 138 126 158 122 63 20 352 4 70 33 34 38 36 146 107 5 356 81 105 87 57 308 334 25 273 329 27 275 273 351 21 343 357 51 34 317 316 330 358 84 100 66 356 325 317 308 301 314 326 306 147 29 23 39 38 19 300 319 284 303 313 290 276 291 308 321 326 325 322 324 330 329 324 321 319 316 314 312 311 312
69 53 331 1 30 53 74 117 94 109 148 117 72 17 21 52 332 341 117 96 34 130 77 350 327 67 50 42 27 323 286 257 277 326 348 291 281 306 15 348 13 35 353 330 353 49 100 72 114 135 245 273 266 272 288 308 308 291 299 325 275 305 38 66 339 276 289 303 297 271 284 301 309 318 322 323 328 329 329 327 323 320 319 316 313 311 310 308
95 80 54 347 4 34 42 22 38 75 136 123 99 24 3 341 312 330 130 183 205 128 72 24 44 44 3 15 25 305 291 330 351 317 288 281 279 280 358 62 10 344 347 354 4 67 88 24 349 197 257 266 261 276 290 296 287 285 292 278 236 259 313 65 293 290 300 299 286 296 307 306 308 317 322 325 331 327 325 324 319 315 314 311 308 306 306 305
74 126 191 114 65 52 39 25 49 66 62 78 108 101 9 7 9 10 277 308 357 121 117 43 30 27 260 266 56 316 319 342 340 301 303 331 334 334 354 32 335 329 359 34 357 83 109 44 274 225 282 281 274 279 283 282 281 275 254 213 217 228 245 291 293 295 301 288 286 305 309 304 307 317 322 327 328 323 320 315 309 307 306 305 305 305 306 307
78 108 300 18 91 146 188 7 72 73 56 61 87 84 85 77 49 296 248 350 355 340 47 47 342 340 258 216 125 89 321 340 316 302 291 1 0 3 351 346 285 336 37 43 348 75 118 339 295 240 291 291 286 279 265 278 292 286 226 198 224 251 274 307 309 302 298 286 289 303 305 302 310 320 323 325 322 317 314 311 309 310 309 310 310 309 308 307
138 141 143 57 72 92 21 12 59 75 46 44 74 75 120 134 107 286 216 108 346 325 25 35 300 299 213 179 160 232 240 197 243 265 221 358 338 310 197 292 270 347 30 49 332 343 23 340 328 35 313 287 285 296 296 296 294 281 246 229 290 312 318 329 323 312 310 303 301 306 303 300 314 327 320 318 315 313 314 315 315 313 312 312 312 309 308 307
106 131 139 110 63 358 8 16 56 84 35 12 83 136 139 173 188 237 237 192 174 249 284 254 277 292 101 140 203 256 251 209 226 247 227 248 276 204 173 148 161 350 9 34 345 355 20 351 340 35 350 294 305 329 320 315 325 99 342 317 338 336 329 331 331 320 317 314 312 312 306 305 324 328 319 314 314 316 317 315 314 313 311 310 308 306 307 313
101 101 117 103 75 355 7 4 23 81 73 359 81 140 313 253 228 199 159 264 204 207 226 201 198 264 1 338 311 280 249 220 228 258 166 113 94 95 92 110 106 68 19 67 13 359 37 10 345 7 341 310 325 330 315 312 343 35 14 353 1 345 328 324 325 320 317 317 315 313 313 321 329 327 321 319 320 321 320 316 314 314 310 306 303 304 308 316